Date,TemperatureHighF,TemperatureAvgF,TemperatureLowF,DewpointHighF,DewpointAvgF,DewpointLowF,HumidityHigh,HumidityAvg,HumidityLow,PressureMaxIn,PressureMinIn,WindSpeedMaxMPH,WindSpeedAvgMPH,GustSpeedMaxMPH,PrecipitationSumIn
2013-1-1,49.5,41.1,31.1,46.6,33.3,24.7,99,75,51,30.15,29.86,13,7,0,0.00
2013-1-2,46.0,34.2,25.2,27.2,25.1,22.2,88,71,44,30.22,30.09,9,3,0,0.00
2013-1-3,45.0,35.5,22.8,29.9,26.3,21.1,95,71,48,30.34,30.20,10,2,0,0.00
2013-1-4,45.0,37.2,32.5,36.5,34.2,28.0,99,89,62,30.39,30.22,7,1,0,0.51
2013-1-5,57.4,42.1,32.4,38.9,35.1,31.7,99,80,44,30.23,30.05,14,3,0,0.00
2013-1-6,58.3,41.2,29.7,33.2,27.3,24.4,98,62,28,30.29,30.17,8,4,0,0.00
2013-1-7,54.1,39.6,24.6,33.1,29.0,23.4,95,69,41,30.20,29.92,8,3,0,0.00
2013-1-8,49.3,45.4,38.1,48.8,43.7,32.7,99,94,78,29.93,29.77,8,4,0,1.48
2013-1-9,54.0,50.7,47.1,53.0,50.3,46.8,99,99,95,29.97,29.74,14,5,0,0.87
2013-1-10,59.2,49.7,44.1,49.9,46.5,43.3,99,89,66,29.88,29.79,14,5,0,0.01
2013-1-11,73.8,56.8,42.3,57.0,49.7,41.0,98,79,51,29.81,29.62,13,4,0,0.00
2013-1-12,59.9,51.3,35.2,59.2,41.3,25.0,99,71,45,29.84,29.57,14,7,0,0.00
2013-1-13,43.3,34.3,26.8,25.4,22.1,18.2,76,61,45,30.11,29.86,14,8,0,0.00
2013-1-14,45.9,33.8,25.5,24.2,20.6,16.6,70,59,40,30.16,30.01,11,6,0,0.00
2013-1-15,39.4,33.6,25.3,25.1,22.4,18.5,76,63,51,30.11,30.00,13,6,0,0.00
2013-1-16,52.7,34.6,17.6,25.9,20.7,16.0,97,62,27,30.18,30.01,14,3,0,0.00
2013-1-17,62.4,43.6,27.3,35.2,29.5,24.3,98,62,31,30.38,30.16,11,3,0,0.00
2013-1-18,65.7,45.2,25.5,35.4,30.6,24.9,99,62,30,30.38,30.12,9,3,0,0.00
2013-1-19,69.4,49.5,33.1,42.1,36.3,29.9,95,64,32,30.13,29.98,11,3,0,0.00
2013-1-20,69.3,47.6,30.9,39.3,34.7,30.3,99,67,28,30.10,29.93,8,2,0,0.00
2013-1-21,59.5,45.4,32.7,37.7,33.2,28.1,89,65,39,30.16,29.99,9,3,0,0.00
2013-1-22,72.9,50.5,30.9,47.8,37.5,26.8,89,64,40,30.17,29.99,13,3,0,0.00
2013-1-23,78.8,59.7,43.5,54.6,49.5,43.2,99,72,42,30.17,29.99,9,4,0,0.00
2013-1-24,84.6,63.9,45.9,58.1,51.2,45.0,99,69,30,30.09,29.89,10,3,0,0.00
2013-1-25,66.7,55.9,43.9,55.9,47.3,39.3,99,74,49,30.06,29.90,10,4,0,0.00
2013-1-26,64.0,52.3,39.6,55.8,46.0,36.1,97,80,55,30.05,29.90,9,3,0,0.00
2013-1-27,78.1,64.2,54.5,60.9,57.1,54.2,99,80,50,29.91,29.75,11,5,0,0.00
2013-1-28,81.9,69.7,61.3,65.2,62.5,60.6,99,80,53,29.84,29.66,20,6,0,0.00
2013-1-29,77.9,65.6,51.8,65.7,47.9,18.4,91,59,24,29.66,29.38,21,10,0,0.00
2013-1-30,54.3,45.2,32.7,30.0,19.8,12.8,63,38,19,30.04,29.67,18,8,0,0.00
2013-1-31,68.0,47.2,26.1,26.2,21.2,16.7,74,41,17,30.12,29.99,22,4,0,0.00
2013-2-1,70.7,52.2,34.7,38.2,31.9,24.8,76,48,27,30.23,29.97,7,4,0,0.00
2013-2-2,68.7,53.5,38.3,46.0,35.4,28.7,88,54,29,30.20,30.01,12,4,0,0.00
2013-2-3,69.8,52.8,31.3,43.6,32.7,27.7,90,51,21,30.21,29.81,11,4,0,0.00
2013-2-4,78.4,63.6,51.6,53.0,45.0,36.0,79,54,24,29.82,29.63,14,5,0,0.00
2013-2-5,77.0,58.1,39.4,50.1,40.9,31.0,88,58,19,29.89,29.74,8,3,0,0.00
2013-2-6,79.3,62.9,46.4,57.6,53.9,46.1,99,76,40,29.84,29.63,12,4,0,0.00
2013-2-7,76.5,62.8,49.5,58.3,50.1,40.1,99,68,28,30.02,29.72,14,7,0,0.00
2013-2-8,65.8,53.5,41.4,41.7,28.6,19.1,82,43,17,30.14,29.94,14,5,0,0.00
2013-2-9,63.7,55.5,50.0,62.8,50.1,28.4,99,84,39,29.94,29.53,20,8,0,0.00
2013-2-10,67.8,57.4,49.6,63.9,33.5,21.4,99,46,17,29.86,29.50,17,5,0,0.65
2013-2-11,59.9,52.4,48.0,43.9,41.0,37.0,81,66,48,29.97,29.82,17,6,0,0.00
2013-2-12,65.3,50.2,39.0,50.9,43.9,33.0,99,80,52,29.96,29.69,17,7,0,0.00
2013-2-13,61.9,45.2,31.1,36.1,30.0,22.6,98,62,23,30.03,29.87,8,3,0,0.00
2013-2-14,73.4,51.3,31.8,37.3,30.7,26.8,91,51,18,29.98,29.80,12,3,0,0.00
2013-2-15,53.1,45.7,33.4,37.1,29.6,18.8,75,55,31,30.27,29.88,16,7,0,0.00
2013-2-16,63.7,44.1,24.4,28.8,25.3,21.3,89,53,25,30.31,30.02,12,3,0,0.00
2013-2-17,75.0,55.6,38.1,45.8,32.1,25.1,71,44,18,30.02,29.72,14,5,0,0.00
2013-2-18,76.8,61.8,45.3,53.8,39.8,21.8,78,51,13,29.99,29.68,20,8,0,0.00
2013-2-19,62.8,52.5,36.5,37.9,26.1,18.5,70,38,19,30.16,29.94,14,7,0,0.00
2013-2-20,50.5,47.9,45.1,45.7,41.0,35.3,99,78,56,29.97,29.51,17,9,0,0.05
2013-2-21,67.3,56.2,46.4,57.1,37.4,22.1,99,58,20,29.75,29.40,25,9,0,0.04
2013-2-22,56.8,41.6,28.8,39.3,27.8,21.6,86,60,35,29.99,29.74,10,6,0,0.22
2013-2-23,64.9,46.1,25.5,33.1,27.5,23.8,94,54,22,29.95,29.73,10,3,0,0.00
2013-2-24,75.9,56.8,36.1,54.9,42.0,31.4,84,60,36,29.73,29.37,16,7,0,0.00
2013-2-25,61.9,46.4,39.2,56.0,36.3,27.6,83,68,45,29.71,29.37,23,12,0,0.00
2013-2-26,63.3,48.3,34.2,31.1,28.1,26.0,74,48,26,29.81,29.66,11,5,0,0.00
2013-2-27,58.6,44.9,34.2,31.2,24.7,17.6,83,49,22,30.13,29.68,14,7,0,0.00
2013-2-28,60.1,44.1,28.9,30.5,24.6,20.3,89,52,22,30.22,30.05,12,4,0,0.00
2013-3-1,64.6,44.7,26.4,29.0,24.5,20.9,85,51,21,30.19,30.02,14,4,0,0.00
2013-3-2,65.3,47.0,31.1,32.8,29.3,26.3,83,53,28,30.32,30.07,10,4,0,0.00
2013-3-3,80.8,58.6,31.6,33.5,28.9,24.8,85,40,15,30.07,29.64,18,5,0,0.00
2013-3-4,87.1,69.2,53.1,38.4,29.1,19.0,53,25,10,29.66,29.50,14,5,0,0.00
2013-3-5,64.4,49.4,35.4,42.8,20.2,8.3,64,36,13,30.25,29.66,29,11,0,0.00
2013-3-6,66.6,46.4,24.1,22.1,16.0,12.2,70,34,14,30.31,30.02,11,4,0,0.00
2013-3-7,73.4,56.3,38.7,50.7,33.2,17.5,75,43,28,30.07,29.90,12,5,0,0.00
2013-3-8,64.4,60.8,56.8,61.4,57.7,51.4,99,90,77,29.97,29.78,12,8,0,0.00
2013-3-9,82.2,66.6,57.7,62.9,60.0,56.6,99,82,49,29.76,29.43,15,6,0,0.76
2013-3-10,58.6,52.6,40.8,56.0,32.8,24.0,95,48,33,29.97,29.63,19,9,0,0.00
2013-3-11,69.3,48.4,26.4,27.6,23.7,18.6,86,43,17,30.05,29.82,11,3,0,0.00
2013-3-12,77.7,58.2,40.6,36.9,31.2,27.0,64,40,16,30.17,29.86,15,6,0,0.00
2013-3-13,75.7,58.3,39.0,38.1,33.9,28.1,67,42,22,30.31,30.11,12,4,0,0.00
2013-3-14,80.8,62.9,44.8,49.2,42.6,37.7,76,50,29,30.21,30.02,16,5,0,0.00
2013-3-15,85.1,67.1,50.9,52.3,47.4,43.2,92,54,24,30.04,29.75,17,5,0,0.00
2013-3-16,92.1,71.8,54.7,51.9,49.0,44.3,81,49,20,29.75,29.46,17,6,0,0.00
2013-3-17,77.0,63.2,50.5,60.1,49.7,40.3,90,63,38,29.70,29.50,10,4,0,0.00
2013-3-18,75.0,62.0,48.7,53.2,45.6,40.7,98,58,35,29.82,29.53,15,5,0,0.00
2013-3-19,78.4,59.2,42.8,53.9,46.8,39.4,89,65,41,29.95,29.73,14,5,0,0.18
2013-3-20,71.8,58.4,44.4,47.8,35.6,27.3,85,47,20,30.17,29.87,14,6,0,0.00
2013-3-21,82.4,64.5,50.4,57.5,46.9,34.3,76,54,41,29.86,29.33,18,6,0,0.00
2013-3-22,64.9,56.0,46.0,57.5,48.2,41.7,99,76,54,29.66,29.43,13,5,0,0.00
2013-3-23,76.1,57.1,45.3,54.9,48.7,41.9,94,76,41,29.68,29.45,18,5,0,0.00
2013-3-24,54.5,44.3,34.2,48.1,25.4,17.0,86,50,26,30.09,29.70,25,10,0,0.00
2013-3-25,57.9,44.5,32.7,22.6,18.1,15.7,54,36,22,30.26,30.04,14,5,0,0.00
2013-3-26,67.1,46.9,25.0,25.7,19.2,15.9,74,38,16,30.34,30.09,11,3,0,0.00
2013-3-27,73.4,56.9,40.1,46.7,35.2,22.7,63,45,34,30.12,29.92,22,7,0,0.00
2013-3-28,77.9,61.7,46.8,57.0,51.7,44.6,95,72,48,30.03,29.90,11,5,0,0.00
2013-3-29,81.0,67.8,55.6,58.1,56.6,55.0,98,70,44,29.99,29.86,12,5,0,0.00
2013-3-30,87.1,69.7,58.6,63.2,59.4,55.2,96,73,41,29.93,29.64,19,6,0,0.37
2013-3-31,81.7,69.5,61.2,62.9,57.7,52.5,98,70,38,29.84,29.69,14,4,0,0.00
2013-4-1,87.6,69.8,50.7,61.2,56.1,50.4,99,66,35,29.92,29.70,12,4,0,0.00
2013-4-2,70.5,60.2,45.0,64.3,56.8,44.7,99,89,72,29.87,29.73,13,7,0,1.33
2013-4-3,51.8,45.0,42.8,51.5,44.1,42.0,99,97,91,30.04,29.71,17,7,0,0.34
2013-4-4,59.0,47.0,40.8,43.3,40.8,38.1,99,80,55,30.12,29.98,10,6,0,0.00
2013-4-5,73.9,54.7,33.4,49.3,42.9,33.1,99,70,37,30.12,29.85,12,3,0,0.00
2013-4-6,85.3,67.9,52.9,58.4,52.2,47.2,82,60,37,29.86,29.62,12,5,0,0.00
2013-4-7,86.7,69.6,55.4,65.5,60.7,55.1,99,76,48,29.72,29.50,13,5,0,0.00
2013-4-8,80.1,70.3,65.1,66.9,63.6,60.5,88,80,61,29.58,29.44,15,7,0,0.00
2013-4-9,87.1,74.6,51.8,68.7,64.7,43.1,87,72,52,29.58,29.38,16,8,0,0.00
2013-4-10,51.6,43.1,35.2,42.1,37.2,33.4,98,81,64,29.88,29.58,18,9,0,0.21
2013-4-11,73.8,53.5,37.4,40.2,35.7,28.4,89,55,24,29.89,29.64,7,3,0,0.00
2013-4-12,82.6,62.3,40.6,49.5,43.8,38.5,97,56,27,29.84,29.66,11,4,0,0.00
2013-4-13,81.5,67.9,51.6,48.9,45.8,42.9,76,48,26,29.80,29.59,16,5,0,0.00
2013-4-14,94.1,74.0,54.5,60.1,48.6,35.6,96,50,13,29.64,29.35,21,6,0,0.00
2013-4-15,93.7,79.1,64.2,66.2,59.7,47.3,90,54,32,29.60,29.46,16,5,0,0.00
2013-4-16,90.1,77.5,65.8,67.1,65.0,63.2,92,68,46,29.71,29.60,16,6,0,0.00
2013-4-17,85.1,75.6,71.4,70.7,68.9,65.1,95,81,57,29.73,29.44,14,8,0,0.00
2013-4-18,75.2,55.5,44.2,70.6,42.7,31.0,99,65,38,30.02,29.44,19,9,0,0.49
2013-4-19,70.0,52.2,34.0,33.7,28.3,22.3,90,45,18,30.21,30.00,14,4,0,0.00
2013-4-20,74.8,57.8,37.2,35.7,31.6,29.4,78,41,21,30.05,29.78,17,6,0,0.00
2013-4-21,78.3,62.5,50.9,53.0,48.7,34.7,85,62,41,30.00,29.84,12,6,0,0.00
2013-4-22,84.6,69.3,58.6,60.6,56.2,51.0,86,65,40,29.92,29.65,14,5,0,0.00
2013-4-23,65.7,52.3,42.1,61.1,44.9,34.4,96,76,66,30.07,29.65,19,8,0,0.00
2013-4-24,66.0,50.4,35.6,36.1,32.3,26.6,75,52,32,30.20,30.05,14,7,0,0.00
2013-4-25,73.4,61.2,53.4,43.4,39.7,34.9,54,46,31,30.21,29.99,12,5,0,0.00
2013-4-26,83.3,69.6,60.6,63.9,56.8,41.7,84,65,47,29.99,29.84,19,5,0,0.00
2013-4-27,82.0,70.6,60.8,64.4,57.1,51.0,99,66,36,30.00,29.84,11,4,0,0.00
2013-4-28,93.0,71.6,48.9,63.6,53.4,45.6,99,60,21,29.92,29.67,12,3,0,0.00
2013-4-29,90.9,75.5,59.0,64.3,58.0,50.2,99,60,26,29.77,29.58,14,5,0,0.00
2013-4-30,90.0,73.6,59.7,63.8,60.2,55.3,99,68,33,29.69,29.53,13,5,0,0.00
2013-5-1,94.6,76.4,63.3,68.3,63.5,60.3,99,68,36,29.86,29.61,18,5,0,0.00
2013-5-2,73.6,47.7,42.4,62.6,40.4,34.1,96,76,60,30.28,29.75,21,11,0,0.00
2013-5-3,70.2,52.6,36.0,34.1,28.4,21.9,79,45,17,30.27,29.91,12,4,0,0.00
2013-5-4,82.4,61.7,35.8,34.2,29.5,26.2,80,36,15,29.92,29.75,9,3,0,0.00
2013-5-5,76.6,60.3,43.5,47.4,39.8,25.6,69,48,28,30.07,29.86,11,4,0,0.00
2013-5-6,74.7,58.4,44.6,56.2,48.1,42.3,99,72,39,30.01,29.88,8,2,0,0.03
2013-5-7,90.0,67.7,44.6,55.4,48.9,44.3,99,60,25,29.97,29.76,11,3,0,0.01
2013-5-8,79.9,70.9,60.1,64.2,59.1,48.1,85,67,53,29.84,29.72,9,3,0,0.00
2013-5-9,80.8,68.8,60.1,66.3,62.5,59.8,99,82,52,29.87,29.70,11,4,0,1.32
2013-5-10,81.3,67.7,58.6,65.1,61.1,56.9,99,82,49,29.96,29.75,14,4,0,0.07
2013-5-11,82.4,68.6,54.0,59.3,52.4,45.2,99,63,29,30.06,29.94,10,4,0,0.00
2013-5-12,83.3,67.1,54.0,52.1,49.6,44.4,88,57,30,30.16,30.01,9,3,0,0.00
2013-5-13,90.1,70.4,49.6,54.2,48.0,40.8,93,52,19,30.13,29.99,11,3,0,0.00
2013-5-14,88.7,73.7,55.2,61.8,55.1,49.5,89,56,30,30.06,29.81,11,4,0,0.00
2013-5-15,90.5,74.8,63.3,69.2,64.8,59.7,99,74,45,29.92,29.57,14,5,0,0.18
2013-5-16,98.1,79.7,64.0,73.3,68.0,61.6,99,72,35,29.66,29.55,9,4,0,0.00
2013-5-17,99.0,83.8,71.1,75.4,70.8,57.3,99,69,29,29.72,29.60,12,5,0,0.00
2013-5-18,96.1,83.0,70.2,72.0,69.6,64.7,99,67,43,29.74,29.58,13,5,0,0.00
2013-5-19,96.6,82.2,67.5,71.6,68.0,63.6,88,64,44,29.68,29.51,13,6,0,0.00
2013-5-20,96.4,79.3,68.5,72.2,68.6,62.8,95,72,46,29.66,29.45,19,6,0,0.18
2013-5-21,84.4,73.2,60.1,72.7,60.3,53.0,83,65,44,29.77,29.62,15,6,0,0.00
2013-5-22,93.7,73.6,50.7,59.2,53.3,46.8,99,58,22,29.82,29.66,11,3,0,0.00
2013-5-23,92.7,79.7,67.6,72.4,69.1,59.5,99,72,47,29.94,29.73,17,6,0,0.00
2013-5-24,84.0,73.4,66.9,71.3,67.7,63.7,93,83,61,30.00,29.86,11,5,0,0.55
2013-5-25,83.7,73.2,66.9,70.4,67.4,64.2,98,83,61,30.00,29.84,14,5,0,0.05
2013-5-26,91.9,79.0,69.4,71.6,68.4,64.9,95,73,43,29.94,29.77,15,5,0,0.00
2013-5-27,89.2,77.2,68.5,71.3,68.7,66.1,93,76,53,29.85,29.64,10,5,0,0.00
2013-5-28,87.4,78.5,68.7,70.0,67.1,65.2,89,70,52,29.72,29.56,14,6,0,0.00
2013-5-29,87.3,78.8,72.7,71.1,68.8,66.2,84,72,57,29.62,29.50,18,8,0,0.00
2013-5-30,94.3,81.4,73.6,72.7,69.7,67.1,86,69,49,29.65,29.55,14,6,0,0.00
2013-5-31,99.0,85.7,75.0,73.8,71.9,69.2,87,66,44,29.69,29.53,10,5,0,0.00
2013-6-1,98.1,82.3,72.9,73.0,70.5,63.3,90,69,43,29.85,29.58,14,5,0,0.00
2013-6-2,90.3,76.3,61.2,64.6,59.5,56.3,96,60,33,29.97,29.77,10,4,0,0.01
2013-6-3,98.6,79.7,58.8,64.2,59.2,54.3,86,53,31,29.87,29.66,11,4,0,0.00
2013-6-4,99.9,85.1,68.4,68.0,62.7,59.2,78,50,32,29.78,29.60,17,6,0,0.00
2013-6-5,97.5,84.3,70.2,67.7,64.3,60.3,84,54,33,29.78,29.59,14,5,0,0.00
2013-6-6,87.4,77.0,68.2,64.9,62.8,60.0,86,63,46,29.80,29.67,11,4,0,0.02
2013-6-8,93.0,86.2,78.6,65.4,62.3,59.0,64,46,33,29.68,29.61,9,5,0,0.00
2013-6-9,94.6,79.9,64.6,68.7,65.4,60.9,98,65,34,29.84,29.68,14,4,0,0.23
2013-6-10,101.7,82.9,64.9,70.0,60.5,48.5,99,56,19,29.87,29.77,14,3,0,0.00
2013-6-11,100.9,84.5,68.2,72.0,65.3,55.9,95,56,31,29.90,29.77,14,4,0,0.00
2013-6-12,100.6,85.0,70.3,71.5,67.3,63.9,95,59,32,29.93,29.79,11,4,0,0.00
2013-6-13,100.9,84.9,70.5,72.0,66.9,60.1,93,59,30,29.94,29.76,11,3,0,0.00
2013-6-14,94.6,80.4,68.0,68.6,66.0,62.6,91,64,41,29.90,29.77,8,2,0,0.00
2013-6-15,93.4,81.1,73.2,71.3,68.2,65.0,88,66,44,29.88,29.74,9,3,0,0.00
2013-6-16,103.5,85.0,71.4,71.9,67.3,64.3,86,59,30,29.90,29.72,10,3,0,0.00
2013-6-17,103.8,85.6,68.9,72.5,67.4,54.6,88,58,30,29.88,29.68,24,4,0,0.35
2013-6-18,98.1,81.4,68.2,68.8,64.4,57.6,97,60,31,29.92,29.76,14,4,0,0.11
2013-6-19,100.8,82.2,72.7,71.6,67.2,64.1,87,64,31,29.84,29.73,25,5,0,0.00
2013-6-20,100.4,84.7,72.1,69.4,66.0,60.8,85,57,33,29.89,29.78,10,4,0,0.00
2013-6-21,101.8,87.2,74.7,70.6,64.7,58.5,85,51,25,29.92,29.80,14,5,0,0.00
2013-6-22,101.5,86.9,74.3,69.7,63.1,57.5,80,48,27,29.90,29.73,12,5,0,0.00
2013-6-23,99.3,86.2,73.4,66.5,61.8,56.0,79,47,25,29.84,29.72,12,6,0,0.00
2013-6-24,100.4,85.6,72.7,68.4,64.6,59.9,81,52,32,29.88,29.72,12,6,0,0.00
2013-6-25,104.7,88.6,75.6,70.3,65.3,58.3,78,50,23,29.84,29.67,14,6,0,0.00
2013-6-26,104.4,89.3,74.8,71.9,68.0,62.4,78,52,31,29.81,29.70,11,4,0,0.00
2013-6-27,109.2,90.8,75.6,69.8,61.7,51.3,80,43,17,29.89,29.74,9,3,0,0.00
2013-6-28,109.6,89.5,69.8,66.8,58.9,51.8,61,38,18,29.89,29.69,9,3,0,0.00
2013-6-29,107.1,91.8,75.0,67.8,62.4,54.6,73,41,20,29.81,29.64,16,4,0,0.00
2013-6-30,99.1,85.5,72.0,66.2,60.0,54.3,80,45,26,29.87,29.72,9,3,0,0.00
2013-7-1,91.0,79.9,69.4,55.9,51.6,45.7,59,39,22,29.96,29.82,20,4,0,0.00
2013-7-2,93.2,78.5,59.2,51.6,47.0,39.6,69,37,18,30.01,29.86,11,4,0,0.00
2013-7-3,95.9,79.2,57.9,51.6,46.1,43.0,65,35,17,29.96,29.79,8,3,0,0.00
2013-7-4,99.7,82.6,61.9,57.8,50.5,46.2,64,36,18,29.88,29.74,14,3,0,0.00
2013-7-5,104.7,86.9,67.8,58.9,52.3,46.3,68,34,16,29.87,29.69,12,5,0,0.00
2013-7-6,101.8,85.5,69.4,64.6,59.0,52.2,79,45,22,29.82,29.67,13,4,0,0.11
2013-7-7,102.4,88.0,72.1,68.6,62.8,57.4,81,46,25,29.87,29.74,11,5,0,0.00
2013-7-8,101.3,84.7,75.0,72.0,68.7,64.7,85,61,32,29.97,29.85,9,4,0,0.00
2013-7-9,104.9,87.4,73.0,71.0,65.4,60.3,87,53,25,30.01,29.85,11,4,0,0.00
2013-7-10,107.6,90.4,75.2,70.5,64.6,58.2,81,47,21,29.97,29.77,9,4,0,0.00
2013-7-11,106.9,89.8,76.3,69.5,64.3,59.9,72,46,25,29.89,29.71,14,4,0,0.00
2013-7-12,106.2,89.4,74.3,68.3,62.5,58.2,66,44,23,29.85,29.73,10,3,0,0.00
2013-7-13,108.1,90.4,71.1,62.6,58.4,51.9,67,38,17,29.89,29.69,9,3,0,0.00
2013-7-14,88.3,79.6,66.7,66.7,62.0,57.6,98,58,39,29.86,29.73,14,6,0,0.81
2013-7-15,72.9,68.3,64.2,70.9,67.5,63.9,99,97,91,29.93,29.82,10,4,0,2.88
2013-7-16,88.2,76.7,69.8,73.2,70.0,67.3,99,82,53,30.06,29.91,13,5,0,0.25
2013-7-17,84.2,74.1,69.6,75.5,70.6,68.4,98,89,65,30.09,30.00,8,4,0,0.47
2013-7-18,95.2,80.0,69.1,73.7,68.4,64.1,99,73,38,30.08,29.89,7,2,0,0.01
2013-7-19,102.6,83.3,68.7,72.3,65.2,57.9,97,60,27,29.96,29.78,8,2,0,0.00
2013-7-20,99.7,84.0,70.7,71.3,67.2,63.3,93,61,33,29.89,29.70,9,3,0,0.00
2013-7-21,104.9,84.3,71.6,72.8,69.3,66.2,91,65,31,29.84,29.70,9,3,0,0.13
2013-7-22,99.5,85.3,73.9,75.0,71.4,67.8,93,67,37,29.85,29.72,12,3,0,0.00
2013-7-23,100.8,87.3,76.6,75.1,70.9,63.6,87,61,35,29.85,29.70,11,4,0,0.00
2013-7-24,104.5,87.3,74.1,74.7,69.7,64.5,87,59,31,29.86,29.75,8,3,0,0.01
2013-7-25,102.7,86.8,75.2,73.0,70.2,66.4,81,60,33,29.91,29.82,10,3,0,0.00
2013-7-26,100.2,84.6,77.7,72.3,69.2,64.9,75,61,38,29.89,29.76,9,4,0,0.00
2013-7-27,93.6,80.3,68.7,68.8,64.6,57.4,92,62,31,29.92,29.77,10,4,0,0.00
2013-7-28,97.9,82.0,65.1,70.5,65.9,61.7,97,62,34,29.86,29.69,8,3,0,0.00
2013-7-29,102.0,88.4,77.2,74.3,68.5,57.2,86,55,25,29.86,29.76,9,5,0,0.06
2013-7-30,103.1,87.7,76.6,71.5,67.5,62.1,80,54,28,29.95,29.79,14,4,0,0.00
2013-7-31,106.5,88.9,76.5,69.8,66.6,62.8,72,50,29,29.97,29.80,10,2,0,0.00
2013-8-1,107.2,89.5,72.0,68.8,65.5,63.1,79,48,26,29.92,29.76,8,2,0,0.00
2013-8-2,105.1,89.3,75.0,67.6,63.5,58.4,71,46,23,29.84,29.73,9,3,0,0.00
2013-8-3,104.5,88.8,74.3,68.4,63.9,59.0,72,46,26,29.89,29.77,9,4,0,0.00
2013-8-4,103.6,88.7,75.2,69.8,66.4,62.2,78,50,29,29.96,29.77,8,4,0,0.00
2013-8-5,106.3,90.7,76.5,68.8,63.6,57.5,71,44,22,29.89,29.70,12,4,0,0.00
2013-8-6,107.1,91.6,76.3,69.6,65.2,59.4,77,45,24,29.80,29.63,13,4,0,0.00
2013-8-7,109.9,92.0,77.4,70.0,64.4,60.1,70,43,21,29.77,29.61,11,5,0,0.00
2013-8-8,107.1,89.4,76.5,69.0,63.3,52.8,72,46,22,29.78,29.62,11,3,0,0.00
2013-8-9,107.2,90.5,77.4,71.9,63.3,57.8,83,44,21,29.87,29.72,10,3,0,0.02
2013-8-10,100.4,86.7,71.4,71.4,66.3,56.6,83,52,36,29.96,29.83,9,3,0,0.00
2013-8-11,104.0,86.8,72.1,70.6,67.1,64.2,85,55,30,29.96,29.81,7,2,0,0.00
2013-8-12,102.9,87.1,71.1,70.1,66.0,61.6,88,54,29,29.95,29.79,10,3,0,0.00
2013-8-13,105.4,89.4,74.8,70.5,65.1,60.0,78,48,23,29.91,29.75,8,3,0,0.00
2013-8-14,93.7,83.9,73.4,71.4,67.5,63.1,80,59,39,29.92,29.80,10,4,0,0.00
2013-8-15,95.9,79.3,70.5,73.7,69.7,67.1,95,75,41,29.91,29.81,8,3,0,0.73
2013-8-16,90.5,76.4,66.4,71.5,66.0,62.6,99,74,41,29.99,29.83,12,4,0,0.02
2013-8-17,95.4,80.4,66.4,69.1,62.2,57.9,86,57,30,29.98,29.83,10,4,0,0.00
2013-8-18,96.6,81.4,64.6,62.5,58.8,57.1,82,50,29,29.97,29.84,9,3,0,0.00
2013-8-19,99.1,82.7,67.3,63.5,60.3,57.2,75,50,29,29.94,29.78,7,2,0,0.00
2013-8-20,100.2,84.3,71.6,65.0,59.2,52.9,71,46,25,29.91,29.81,10,4,0,0.00
2013-8-21,98.8,83.1,68.2,69.3,65.0,56.3,88,57,31,29.97,29.82,10,3,0,0.00
2013-8-22,102.0,87.3,72.0,70.9,65.4,60.0,83,52,28,29.97,29.78,8,3,0,0.00
2013-8-23,99.9,81.5,71.4,73.0,68.3,63.6,88,66,36,29.92,29.80,7,2,0,0.14
2013-8-24,100.6,82.8,68.4,75.5,67.5,63.4,94,64,30,29.95,29.81,8,2,0,0.13
2013-8-25,98.6,86.0,71.6,71.6,65.9,62.4,85,54,32,30.01,29.88,13,4,0,0.00
2013-8-26,94.5,83.2,72.5,69.5,66.3,63.5,83,58,38,30.04,29.90,10,5,0,0.00
2013-8-27,85.8,74.4,69.6,74.0,69.9,66.5,95,86,64,30.01,29.89,9,3,0,1.32
2013-8-28,99.5,81.6,67.5,72.8,66.3,61.9,99,65,32,30.01,29.88,9,2,0,0.00
2013-8-29,101.7,84.2,69.4,71.4,66.0,62.2,89,58,29,30.00,29.84,8,2,0,0.00
2013-8-30,102.7,85.3,68.4,69.4,65.2,60.9,95,57,28,29.93,29.76,9,2,0,0.00
2013-8-31,104.4,87.2,70.7,66.8,63.6,59.8,77,49,24,29.83,29.67,10,2,0,0.00
2013-9-1,107.2,87.5,71.6,68.7,64.9,61.5,77,50,25,29.81,29.67,6,2,0,0.00
2013-9-2,93.2,77.9,69.1,72.6,68.3,64.2,98,75,44,29.93,29.76,18,3,0,1.16
2013-9-3,100.2,83.7,69.6,71.2,66.8,58.4,97,63,27,29.91,29.76,7,2,0,0.00
2013-9-4,100.9,84.7,68.0,69.1,64.0,52.7,90,55,21,29.94,29.81,7,2,0,0.00
2013-9-5,99.1,82.2,71.6,72.8,68.7,66.3,87,65,38,30.00,29.89,9,2,0,0.15
2013-9-6,102.7,85.1,69.4,72.3,65.8,57.4,92,57,25,29.99,29.81,7,2,0,0.00
2013-9-7,99.5,83.9,70.2,70.5,64.8,60.3,87,56,30,29.93,29.76,13,3,0,0.00
2013-9-8,96.6,81.0,67.8,72.2,66.5,62.3,94,64,36,29.87,29.72,8,3,0,0.00
2013-9-9,95.4,80.4,68.4,70.3,66.2,61.5,93,66,36,29.88,29.75,11,4,0,0.00
2013-9-10,93.7,79.6,69.3,71.0,67.2,64.2,95,69,38,29.96,29.85,10,4,0,0.00
2013-9-11,95.7,80.7,69.1,72.5,64.8,56.0,94,63,29,30.00,29.87,10,3,0,0.00
2013-9-12,95.7,80.9,65.3,69.7,62.0,58.1,87,56,32,29.97,29.81,9,2,0,0.00
2013-9-13,99.1,83.0,67.1,65.6,60.9,56.9,82,51,26,29.88,29.69,9,2,0,0.00
2013-9-14,100.0,83.7,67.8,65.2,62.1,57.9,81,51,29,29.82,29.69,10,2,0,0.00
2013-9-15,96.4,83.5,72.5,68.7,65.0,61.4,81,56,37,29.90,29.80,10,3,0,0.00
2013-9-16,97.2,84.6,75.2,71.1,62.9,53.4,75,51,26,29.96,29.84,10,4,0,0.00
2013-9-17,93.4,81.3,72.3,72.0,66.9,64.1,92,64,40,29.96,29.80,7,2,0,0.01
2013-9-18,96.6,83.3,73.0,69.7,64.1,56.0,83,56,26,29.90,29.70,11,3,0,0.00
2013-9-19,83.5,75.3,71.4,72.3,69.1,61.6,97,82,57,29.84,29.71,6,2,0,1.31
2013-9-20,71.4,70.0,68.2,70.8,68.9,66.1,99,96,91,29.81,29.68,14,5,0,0.87
2013-9-21,82.9,70.2,59.0,66.9,55.1,45.0,94,64,27,29.87,29.71,10,5,0,0.00
2013-9-22,87.6,68.4,49.8,57.7,50.2,42.0,97,60,23,29.79,29.62,8,2,0,0.00
2013-9-23,91.4,72.3,53.6,55.3,51.5,47.2,93,54,25,29.69,29.56,8,2,0,0.00
2013-9-24,93.7,75.8,58.8,63.3,56.8,51.7,81,55,28,29.80,29.67,6,1,0,0.00
2013-9-25,96.1,78.3,60.1,64.0,60.3,57.4,92,58,31,29.77,29.59,9,2,0,0.00
2013-9-26,93.9,79.5,66.6,61.5,57.7,50.4,76,50,26,29.73,29.63,10,4,0,0.00
2013-9-27,90.5,79.5,71.1,72.2,69.5,58.9,87,72,54,29.74,29.63,12,6,0,0.00
2013-9-28,85.8,73.3,63.7,73.5,67.0,56.7,88,81,66,29.92,29.69,12,6,0,0.00
2013-9-29,81.5,68.8,56.1,57.5,53.1,46.9,87,61,32,29.93,29.78,10,4,0,0.12
2013-9-30,93.2,70.3,48.9,63.4,54.2,46.7,98,63,29,29.81,29.62,9,2,0,0.00
2013-10-1,92.5,76.3,59.0,85.7,60.6,53.2,95,61,36,29.75,29.65,9,4,0,0.00
2013-10-2,93.4,80.2,70.5,72.3,67.0,62.2,93,67,38,29.80,29.66,10,4,0,0.00
2013-10-3,93.7,81.6,71.6,71.6,66.5,61.5,91,64,36,29.75,29.60,14,5,0,0.00
2013-10-4,92.8,80.4,70.2,69.4,66.5,64.6,86,65,42,29.72,29.62,11,4,0,0.00
2013-10-5,77.2,62.6,50.7,68.7,52.9,40.3,93,72,47,29.97,29.70,14,5,0,0.27
2013-10-6,76.8,59.2,43.0,51.8,42.0,31.2,99,63,19,30.03,29.91,12,2,0,0.00
2013-10-7,85.6,63.4,41.4,47.7,41.7,34.9,97,54,18,30.01,29.88,5,1,0,0.00
2013-10-8,88.5,67.8,46.4,48.9,43.7,40.6,85,47,20,29.93,29.77,7,2,0,0.00
2013-10-9,86.7,70.4,52.0,55.4,50.6,45.7,80,52,31,29.89,29.75,11,4,0,0.00
2013-10-10,86.4,73.5,62.8,63.9,59.7,54.7,87,64,43,29.86,29.67,14,5,0,0.00
2013-10-11,91.0,77.4,67.1,68.1,64.9,60.9,88,67,43,29.75,29.63,12,4,0,0.00
2013-10-12,90.0,75.0,67.8,74.4,69.2,61.8,99,83,53,29.90,29.73,12,2,0,1.12
2013-10-13,76.3,70.7,66.4,69.4,65.8,63.9,95,85,72,30.05,29.89,11,4,0,0.20
2013-10-14,80.8,72.5,68.0,71.9,68.8,66.5,99,89,67,29.96,29.71,8,3,0,0.62
2013-10-15,71.2,62.1,50.4,70.6,61.2,49.9,99,97,94,29.91,29.74,12,4,0,2.23
2013-10-16,66.4,56.2,49.8,51.8,49.1,46.4,98,79,55,29.96,29.86,10,5,0,0.47
2013-10-17,74.8,57.5,41.2,50.0,46.3,40.9,99,70,39,29.98,29.78,8,2,0,0.00
2013-10-18,76.5,59.8,47.8,60.9,52.6,42.6,92,78,58,29.98,29.70,18,4,0,0.11
2013-10-19,68.2,51.3,39.7,42.6,38.8,35.6,90,66,32,30.09,29.91,12,4,0,0.00
2013-10-20,77.5,58.2,39.4,55.7,47.2,37.5,98,70,46,29.92,29.66,11,3,0,0.00
2013-10-21,70.9,59.4,52.9,56.5,51.4,47.2,87,75,59,29.98,29.73,10,4,0,0.00
2013-10-22,76.1,58.5,43.2,49.1,42.6,34.5,99,63,24,30.04,29.90,6,1,0,0.00
2013-10-23,82.0,61.3,42.8,50.0,44.0,39.8,93,58,25,30.01,29.88,7,1,0,0.00
2013-10-24,82.2,61.3,43.0,49.5,45.4,40.2,94,61,27,30.08,29.95,5,1,0,0.00
2013-10-25,76.6,62.9,50.9,55.4,51.0,44.6,84,67,42,30.18,30.02,9,4,0,0.00
2013-10-26,80.4,66.8,59.9,65.8,60.8,54.8,98,82,57,30.04,29.86,16,3,0,0.38
2013-10-27,73.0,62.5,56.1,59.7,57.2,54.4,98,84,59,29.98,29.82,6,3,0,0.00
2013-10-28,78.8,69.1,57.4,67.5,63.6,56.8,98,84,64,29.89,29.76,11,4,0,0.00
2013-10-29,82.4,73.6,68.2,70.1,66.6,63.3,92,79,65,29.88,29.77,9,4,0,0.00
2013-10-30,78.3,71.8,68.0,70.7,67.6,64.9,94,87,75,29.85,29.62,8,3,0,0.01
2013-10-31,75.0,67.3,49.1,66.7,47.2,33.0,92,54,25,29.74,29.57,13,4,0,0.00
2013-11-1,75.9,57.6,41.9,44.7,40.4,34.7,94,59,23,29.98,29.66,15,3,0,0.00
2013-11-2,69.8,55.5,43.0,40.5,35.8,29.9,82,52,24,30.17,29.99,7,2,0,0.00
2013-11-3,67.1,55.0,41.2,42.6,38.3,35.1,82,55,35,30.06,29.74,11,4,0,0.00
2013-11-4,62.8,59.4,55.9,58.9,53.6,40.0,92,82,50,29.86,29.75,9,4,0,0.02
2013-11-5,69.3,64.6,61.3,65.1,62.7,59.0,99,94,84,29.83,29.73,9,3,0,0.15
2013-11-6,64.4,53.7,39.0,64.1,44.5,33.7,99,74,36,30.21,29.80,14,5,0,0.09
2013-11-7,65.7,48.7,34.0,42.0,35.9,29.9,94,67,30,30.34,30.21,8,2,0,0.00
2013-11-8,61.5,56.1,45.0,43.7,39.1,34.2,83,54,37,30.22,29.95,6,2,0,0.00
2013-11-9,74.1,59.0,44.2,54.4,47.7,39.4,93,68,45,30.02,29.87,9,3,0,0.00
2013-11-10,71.2,58.0,47.5,59.8,53.7,47.2,99,87,63,30.16,30.01,7,2,0,0.00
2013-11-11,74.7,58.0,43.7,57.4,51.8,43.4,99,82,53,30.12,29.99,4,1,0,0.00
2013-11-12,57.0,45.8,31.1,54.4,33.5,16.7,98,66,31,30.51,30.12,17,7,0,0.00
2013-11-13,55.6,38.4,21.7,27.6,22.2,16.5,81,55,29,30.51,30.20,6,2,0,0.00
2013-11-14,63.5,46.9,30.0,40.0,31.6,24.6,82,58,32,30.19,29.80,10,3,0,0.00
2013-11-15,77.2,58.2,39.7,53.8,46.7,36.7,96,68,41,29.83,29.62,8,3,0,0.00
2013-11-16,81.3,65.2,53.4,60.7,57.1,50.9,97,77,49,29.68,29.50,7,3,0,0.00
2013-11-17,86.0,68.5,51.6,64.2,52.0,39.4,99,64,20,29.82,29.55,13,2,0,0.00
2013-11-18,72.7,63.4,52.2,44.2,38.3,30.9,71,40,32,29.99,29.83,10,4,0,0.00
2013-11-19,71.8,60.1,48.4,45.6,41.2,36.9,70,51,36,29.97,29.77,10,4,0,0.00
2013-11-20,72.5,63.1,54.5,61.3,55.2,44.2,85,76,66,29.80,29.66,10,4,0,0.00
2013-11-21,82.4,67.5,40.6,67.8,60.1,35.8,91,78,57,30.05,29.74,15,5,0,0.00
2013-11-22,39.7,32.4,29.8,35.6,29.1,26.7,92,88,81,30.29,30.05,20,10,0,0.03
2013-11-23,35.8,33.4,31.1,32.5,30.5,27.5,94,89,72,30.36,30.26,12,8,0,0.08
2013-11-24,36.3,34.2,31.5,29.7,27.9,26.1,93,78,69,30.36,30.11,14,6,0,0.17
2013-11-25,41.4,35.8,31.5,34.3,32.3,29.8,95,87,75,30.12,29.93,9,3,0,0.06
2013-11-26,51.8,40.5,32.5,33.5,29.1,23.6,88,66,39,30.22,29.99,17,8,0,0.00
2013-11-27,49.8,36.2,25.7,27.1,21.9,16.1,82,59,28,30.33,30.14,7,2,0,0.00
2013-11-28,59.0,41.6,28.2,31.9,26.8,23.4,85,59,30,30.23,30.10,8,2,0,0.00
2013-11-29,64.0,44.6,25.2,42.9,34.0,22.7,93,69,42,30.31,30.11,8,2,0,0.00
2013-11-30,68.7,53.6,39.9,53.1,47.7,39.6,99,82,56,30.16,29.97,14,3,0,0.00
2013-12-1,65.7,57.4,46.9,57.2,53.1,46.6,99,86,73,30.00,29.76,7,2,0,0.00
2013-12-2,76.1,56.5,41.4,51.7,40.9,34.0,99,64,22,29.76,29.50,14,3,0,0.00
2013-12-3,82.8,60.4,42.6,39.1,34.2,30.3,74,42,16,29.52,29.39,10,3,0,0.00
2013-12-4,85.3,63.6,48.6,52.7,44.2,37.8,74,52,26,29.68,29.45,13,3,0,0.00
2013-12-5,51.6,33.1,25.7,38.2,20.7,12.4,94,62,41,29.99,29.68,21,10,0,0.00
2013-12-6,30.4,25.1,21.7,24.4,20.0,14.7,93,81,68,30.32,29.95,14,8,0,0.00
2013-12-7,24.6,22.0,18.3,16.0,13.3,9.5,74,69,62,30.34,30.06,11,6,0,0.00
2013-12-8,43.5,30.4,23.2,31.4,24.3,16.0,95,78,62,30.05,29.81,7,2,0,0.25
2013-12-9,31.8,29.1,25.2,31.6,28.2,24.2,99,96,89,30.25,29.87,9,5,0,0.00
2013-12-10,43.7,29.9,16.2,25.6,21.3,14.8,97,73,46,30.35,30.12,6,2,0,0.10
2013-12-11,50.4,36.1,27.7,29.4,25.5,21.3,80,66,41,30.40,30.11,9,3,0,0.00
2013-12-12,49.1,36.8,23.4,32.5,27.1,21.4,92,70,42,30.44,30.08,6,2,0,0.00
2013-12-13,61.0,48.3,40.6,49.1,39.8,32.0,92,73,63,30.10,29.63,12,4,0,0.00
2013-12-14,50.0,42.0,27.7,41.7,30.9,23.5,85,65,43,30.21,29.67,13,6,0,0.00
2013-12-15,61.3,40.0,21.7,32.7,26.0,19.6,97,63,26,30.21,30.06,9,2,0,0.00
2013-12-16,68.2,45.5,27.5,35.8,29.4,23.3,87,58,26,30.12,29.98,11,2,0,0.00
2013-12-17,72.3,48.0,28.4,39.5,32.1,25.6,91,60,24,30.16,30.04,5,1,0,0.00
2013-12-18,69.8,50.6,30.9,48.9,39.7,28.0,95,68,44,30.10,29.80,10,3,0,0.00
2013-12-19,71.4,59.4,48.6,55.2,51.3,44.0,94,76,56,29.80,29.58,12,5,0,0.00
2013-12-20,65.5,49.8,32.7,61.3,47.6,31.7,99,93,76,29.69,29.55,14,4,0,0.01
2013-12-21,62.8,49.9,34.3,51.2,40.8,34.0,99,76,38,29.62,29.40,20,6,0,2.00
2013-12-22,49.1,39.1,28.4,37.3,28.9,23.2,89,68,44,30.19,29.60,14,6,0,0.00
2013-12-23,55.4,37.1,22.3,31.0,25.7,20.6,98,68,35,30.33,30.18,7,1,0,0.00
2013-12-24,61.2,43.2,26.4,33.9,28.8,22.8,92,61,33,30.34,30.03,11,4,0,0.00
2013-12-25,54.7,40.1,30.4,37.6,30.7,24.7,89,70,45,30.25,30.04,10,3,0,0.00
2013-12-26,55.8,38.8,27.3,33.0,27.2,20.9,99,69,26,30.27,30.14,7,1,0,0.00
2013-12-27,58.3,40.0,26.1,35.2,28.7,23.3,92,68,34,30.29,30.15,4,1,0,0.00
2013-12-28,60.4,45.7,32.0,47.2,38.7,28.2,87,77,59,30.15,29.78,14,2,0,0.00
2013-12-29,52.5,40.0,27.7,45.2,35.2,22.4,90,83,75,30.14,29.76,17,7,0,0.00
2013-12-30,49.1,33.7,21.4,27.9,22.4,17.6,91,65,38,30.24,30.07,10,2,0,0.00
2013-12-31,59.5,40.4,23.2,32.5,27.6,21.0,91,64,35,30.28,30.00,7,2,0,0.00
2014-1-1,70.3,49.6,31.3,44.7,35.1,25.2,88,61,34,30.05,29.74,22,7,0,0.00
2014-1-2,47.5,34.1,25.3,23.6,20.2,17.6,75,58,34,30.34,30.06,21,6,0,0.00